H1 CPF 2 NER 2023 6 16 9 167 01 glonass142 H2 2001801 9142 45358 2023 6 16 0 0 0 2023 6 19 23 45 0 900 1 1 0 0 0 1 H9 10 0 60111 0.00000 0 10763365.830 7062242.320 -22014734.146 10 0 60111 900.00000 0 11061128.909 9692624.276 -20836540.383 10 0 60111 1800.00000 0 11524099.872 12126133.270 -19253489.211 10 0 60111 2700.00000 0 12115728.150 14306615.823 -17296396.478 10 0 60111 3600.00000 0 12790742.156 16187143.328 -15003334.117 10 0 60111 4500.00000 0 13497161.715 17731734.431 -12418887.248 10 0 60111 5400.00000 0 14178608.317 18916626.966 -9593285.395 10 0 60111 6300.00000 0 14776815.485 19731047.597 -6581424.712 10 0 60111 7200.00000 0 15234233.083 20177448.336 -3441800.346 10 0 60111 8100.00000 0 15496615.459 20271201.393 -235369.767 10 0 60111 9000.00000 0 15515484.010 20039766.521 2975630.698 10 0 60111 9900.00000 0 15250360.076 19521367.002 6128892.981 10 0 60111 10800.00000 0 14670673.722 18763231.011 9163244.504 10 0 60111 11700.00000 0 13757267.689 17819473.112 12019832.072 10 0 60111 12600.00000 0 12503432.773 16748705.557 14643259.556 10 0 60111 13500.00000 0 10915430.540 15611480.164 16982657.536 10 0 60111 14400.00000 0 9012480.722 14467668.304 18992664.606 10 0 60111 15300.00000 0 6826212.905 13373888.932 20634301.826 10 0 60111 16200.00000 0 4399604.365 12381092.235 21875723.982 10 0 60111 17100.00000 0 1785447.068 11532399.845 22692833.751 10 0 60111 18000.00000 0 -955593.605 10861291.657 23069747.372 10 0 60111 18900.00000 0 -3757249.148 10390214.827 22999103.215 10 0 60111 19800.00000 0 -6550154.366 10129672.903 22482207.403 10 0 60111 20700.00000 0 -9264487.207 10077833.119 21529013.573 10 0 60111 21600.00000 0 -11832633.725 10220668.363 20157936.751 10 0 60111 22500.00000 0 -14191768.543 10532628.066 18395504.300 10 0 60111 23400.00000 0 -16286244.416 10977810.222 16275849.897 10 0 60111 24300.00000 0 -18069692.099 11511585.679 13840059.408 10 0 60111 25200.00000 0 -19506743.417 12082606.739 11135380.440 10 0 60111 26100.00000 0 -20574305.781 12635115.687 8214310.152 10 0 60111 27000.00000 0 -21262334.987 13111455.944 5133578.464 10 0 60111 27900.00000 0 -21574073.918 13454679.553 1953046.134 10 0 60111 28800.00000 0 -21525747.223 13611140.294 -1265460.815 10 0 60111 29700.00000 0 -21145724.960 13532961.947 -4459357.302 10 0 60111 30600.00000 0 -20473190.711 13180276.241 -7566522.003 10 0 60111 31500.00000 0 -19556370.740 12523134.585 -10526512.166 10 0 60111 32400.00000 0 -18450399.449 11543011.408 -13281745.974 10 0 60111 33300.00000 0 -17214911.830 10233834.243 -15778628.685 10 0 60111 34200.00000 0 -15911465.138 8602495.766 -17968599.923 10 0 60111 35100.00000 0 -14600899.137 6668824.978 -19809081.345 10 0 60111 36000.00000 0 -13340746.630 4465017.648 -21264306.021 10 0 60111 36900.00000 0 -12182803.623 2034548.952 -22306013.403 10 0 60111 37800.00000 0 -11170961.420 -569386.948 -22913996.617 10 0 60111 38700.00000 0 -10339391.596 -3285845.867 -23076491.811 10 0 60111 39600.00000 0 -9711159.691 -6048429.481 -22790402.421 10 0 60111 40500.00000 0 -9297325.185 -8787812.983 -22061354.487 10 0 60111 41400.00000 0 -9096564.740 -11434399.777 -20903582.340 10 0 60111 42300.00000 0 -9095333.584 -13920993.237 -19339647.207 10 0 60111 43200.00000 0 -9268557.298 -16185374.950 -17399994.467 10 0 60111 44100.00000 0 -9580823.942 -18172682.810 -15122358.234 10 0 60111 45000.00000 0 -9988025.473 -19837490.646 -12551024.961 10 0 60111 45900.00000 0 -10439378.522 -21145503.601 -9735970.412 10 0 60111 46800.00000 0 -10879738.675 -22074799.485 -6731886.765 10 0 60111 47700.00000 0 -11252110.079 -22616565.280 -3597118.897 10 0 60111 48600.00000 0 -11500243.993 -22775299.157 -392530.608 10 0 60111 49500.00000 0 -11571216.200 -22568470.648 2819677.075 10 0 60111 50400.00000 0 -11417874.144 -22025654.355 5977172.348 10 0 60111 51300.00000 0 -11001050.186 -21187174.538 9018700.332 10 0 60111 52200.00000 0 -10291447.301 -20102318.298 11885268.575 10 0 60111 53100.00000 0 -9271117.325 -18827193.020 14521287.416 10 0 60111 54000.00000 0 -7934469.027 -17422318.363 16875643.361 10 0 60111 54900.00000 0 -6288762.924 -15950053.953 18902685.093 10 0 60111 55800.00000 0 -4354071.231 -14471970.493 20563103.497 10 0 60111 56700.00000 0 -2162703.511 -13046274.112 21824689.285 10 0 60111 57600.00000 0 241879.248 -11725391.248 22662954.185 10 0 60111 58500.00000 0 2806618.252 -10553814.550 23061604.149 10 0 60111 59400.00000 0 5470815.047 -9566299.257 23012855.845 10 0 60111 60300.00000 0 8168414.306 -8786484.894 22517590.445 10 0 60111 61200.00000 0 10830517.850 -8225999.490 21585341.595 10 0 60111 62100.00000 0 13388026.824 -7884083.458 20234117.434 10 0 60111 63000.00000 0 15774303.427 -7747748.740 18490059.441 10 0 60111 63900.00000 0 17927742.377 -7792466.529 16386943.916 10 0 60111 64800.00000 0 19794145.757 -7983354.759 13965534.827 10 0 60111 65700.00000 0 21328802.613 -8276815.557 11272799.656 10 0 60111 66600.00000 0 22498186.603 -8622553.757 8361002.714 10 0 60111 67500.00000 0 23281200.652 -8965891.279 5286692.953 10 0 60111 68400.00000 0 23669916.345 -9250279.401 2109605.644 10 0 60111 69300.00000 0 23669776.827 -9419902.196 -1108500.670 10 0 60111 70200.00000 0 23299254.606 -9422260.259 -4305048.988 10 0 60111 71100.00000 0 22588978.653 -9210624.370 -7417866.455 10 0 60111 72000.00000 0 21580367.738 -8746254.049 -10386400.149 10 0 60111 72900.00000 0 20323827.894 -8000285.837 -13152901.607 10 0 60111 73800.00000 0 18876590.423 -6955210.069 -15663556.259 10 0 60111 74700.00000 0 17300282.062 -5605872.404 -17869535.087 10 0 60111 75600.00000 0 15658330.146 -3959956.582 -19727947.619 10 0 60111 76500.00000 0 14013312.392 -2037926.845 -21202677.495 10 0 60111 77400.00000 0 12424363.047 127568.597 -22265084.328 10 0 60111 78300.00000 0 10944744.419 2492809.004 -22894558.454 10 0 60111 79200.00000 0 9619685.508 5004581.711 -23078918.157 10 0 60111 80100.00000 0 8484577.977 7602166.514 -22814642.077 10 0 60111 81000.00000 0 7563604.334 10219641.603 -22106932.759 10 0 60111 81900.00000 0 6868854.889 12788415.460 -20969610.542 10 0 60111 82800.00000 0 6399969.378 15239879.682 -19424840.151 10 0 60111 83700.00000 0 6144317.045 17508072.734 -17502695.576 10 0 60111 84600.00000 0 6077706.329 19532244.196 -15240571.801 10 0 60111 85500.00000 0 6165593.085 21259213.161 -12682454.914 10 0 60112 0.00000 0 6364735.322 22645422.977 -9878065.088 10 0 60112 900.00000 0 6625223.829 23658607.933 -6881887.577 10 0 60112 1800.00000 0 6892801.913 24279001.265 -3752114.462 10 0 60112 2700.00000 0 7111375.979 24500037.277 -549512.830 10 0 60112 3600.00000 0 7225610.129 24328517.156 2663754.807 10 0 60112 4500.00000 0 7183494.808 23784233.207 5825336.217 10 0 60112 5400.00000 0 6938780.646 22899068.004 8873897.535 10 0 60112 6300.00000 0 6453174.382 21715606.908 11750310.267 10 0 60112 7200.00000 0 5698203.888 20285322.731 14398794.285 10 0 60112 8100.00000 0 4656673.262 18666408.974 16767994.862 10 0 60112 9000.00000 0 3323646.152 16921352.512 18811973.341 10 0 60112 9900.00000 0 1706915.254 15114347.251 20491092.699 10 0 60112 10800.00000 0 -173062.693 13308656.562 21772781.495 10 0 60112 11700.00000 0 -2283764.928 11564034.174 22632162.025 10 0 60112 12600.00000 0 -4581710.072 9934310.612 23052531.032 10 0 60112 13500.00000 0 -7014030.265 8465245.144 23025684.070 10 0 60112 14400.00000 0 -9520444.158 7192732.149 22552077.396 10 0 60112 15300.00000 0 -12035550.178 6141436.089 21640824.137 10 0 60112 16200.00000 0 -14491346.150 5323911.490 20309524.428 10 0 60112 17100.00000 0 -16819871.720 4740244.246 18583932.180 10 0 60112 18000.00000 0 -18955864.593 4378228.943 16497464.104 10 0 60112 18900.00000 0 -20839320.636 4214074.529 14090559.603 10 0 60112 19800.00000 0 -22417851.490 4213608.548 11409903.023 10 0 60112 20700.00000 0 -23648741.265 4333929.133 8507522.581 10 0 60112 21600.00000 0 -24500616.156 4525434.931 5439782.899 10 0 60112 22500.00000 0 -24954656.719 4734146.947 2266290.376 10 0 60112 23400.00000 0 -25005301.491 4904223.675 -951267.233 10 0 60112 24300.00000 0 -24660412.048 4980562.371 -4150324.207 10 0 60112 25200.00000 0 -23940892.229 4911375.436 -7268659.191 10 0 60112 26100.00000 0 -22879777.417 4650631.686 -10245611.948 10 0 60112 27000.00000 0 -21520832.247 4160257.931 -13023269.999 10 0 60112 27900.00000 0 -19916715.967 3412006.353 -15547601.304 10 0 60112 28800.00000 0 -18126792.997 2388907.445 -17769510.232 10 0 60112 29700.00000 0 -16214681.161 1086245.857 -19645795.806 10 0 60112 30600.00000 0 -14245640.976 -487983.201 -21139993.396 10 0 60112 31500.00000 0 -12283915.865 -2313157.299 -22223083.425 10 0 60112 32400.00000 0 -10390134.941 -4356647.340 -22874053.568 10 0 60112 33300.00000 0 -8618887.006 -6574950.181 -23080303.862 10 0 60112 34200.00000 0 -7016566.926 -8915286.613 -22837887.286 10 0 60112 35100.00000 0 -5619583.803 -11317598.516 -22151581.610 10 0 60112 36000.00000 0 -4453004.906 -13716862.356 -21034791.536 10 0 60112 36900.00000 0 -3529690.934 -16045622.899 -19509283.350 10 0 60112 37800.00000 0 -2849957.419 -18236641.905 -17604757.503 10 0 60112 38700.00000 0 -2401774.961 -20225551.726 -15358267.554 10 0 60112 39600.00000 0 -2161498.399 -21953403.454 -12813496.855 10 0 60112 40500.00000 0 -2095092.791 -23369003.711 -10019907.111 10 0 60112 41400.00000 0 -2159803.288 -24430942.903 -7031775.343 10 0 60112 42300.00000 0 -2306197.326 -25109230.663 -3907138.132 10 0 60112 43200.00000 0 -2480492.028 -25386470.630 -706663.735 10 0 60112 44100.00000 0 -2627067.735 -25258525.998 2507525.882 10 0 60112 45000.00000 0 -2691060.870 -24734648.565 5673060.010 10 0 60112 45900.00000 0 -2620926.134 -23837066.512 8728527.685 10 0 60112 46800.00000 0 -2370859.430 -22600048.720 11614666.226 10 0 60112 47700.00000 0 -1902978.914 -21068485.254 14275506.829 10 0 60112 48600.00000 0 -1189171.842 -19296043.735 16659455.254 10 0 60112 49500.00000 0 -212528.984 -17342978.780 18720287.098 10 0 60112 50400.00000 0 1031694.329 -15273685.961 20418038.849 10 0 60112 51300.00000 0 2535631.647 -13154102.051 21719778.103 10 0 60112 52200.00000 0 4278893.106 -11049059.468 22600238.652 10 0 60112 53100.00000 0 6229184.942 -9019704.487 23042308.668 10 0 60112 54000.00000 0 8343436.343 -7121085.991 23037362.929 10 0 60112 54900.00000 0 10569388.215 -5400014.301 22585432.831 10 0 60112 55800.00000 0 12847579.124 -3893278.495 21695210.759 10 0 60112 56700.00000 0 15113647.232 -2626295.692 20383888.383 10 0 60112 57600.00000 0 17300853.641 -1612248.014 18676831.344 10 0 60112 58500.00000 0 19342723.089 -851742.696 16607095.840 10 0 60112 59400.00000 0 21175692.624 -333009.138 14214795.566 10 0 60112 60300.00000 0 22741658.163 -32624.243 11546330.334 10 0 60112 61200.00000 0 23990312.531 83264.752 8653490.615 10 0 60112 62100.00000 0 24881176.941 57271.766 5592454.768 10 0 60112 63000.00000 0 25385240.315 -61271.522 2422698.131 10 0 60112 63900.00000 0 25486137.030 -218647.104 -794164.777 10 0 60112 64800.00000 0 25180812.990 -359270.823 -3995582.119 10 0 60112 65700.00000 0 24479651.399 -428293.737 -7119286.763 10 0 60112 66600.00000 0 23406052.482 -374173.486 -10104513.876 10 0 60112 67500.00000 0 21995484.527 -151105.612 -12893189.604 10 0 60112 68400.00000 0 20294046.061 278789.321 -15431066.942 10 0 60112 69300.00000 0 18356599.676 943616.583 -17668785.956 10 0 60112 70200.00000 0 16244556.079 1860275.449 -19562837.278 10 0 60112 71100.00000 0 14023401.602 3033506.282 -21076409.911 10 0 60112 72000.00000 0 11760073.034 4455457.687 -22180106.780 10 0 60112 72900.00000 0 9520289.790 6105792.905 -22852514.355 10 0 60112 73800.00000 0 7365954.894 7952331.765 -23080615.622 10 0 60112 74700.00000 0 5352733.094 9952201.975 -22860038.794 10 0 60112 75600.00000 0 3527906.635 12053452.113 -22195137.422 10 0 60112 76500.00000 0 1928597.303 14197059.349 -21098900.744 10 0 60112 77400.00000 0 580427.881 16319248.356 -19592696.369 10 0 60112 78300.00000 0 -503322.485 18354024.884 -17705850.556 10 0 60112 79200.00000 0 -1322035.235 20235818.454 -15475074.359 10 0 60112 80100.00000 0 -1887530.030 21902123.991 -12943746.912 10 0 60112 81000.00000 0 -2223314.072 23296032.246 -10161069.817 10 0 60112 81900.00000 0 -2363336.267 24368543.462 -7181109.111 10 0 60112 82800.00000 0 -2350300.081 25080567.690 -4061743.540 10 0 60112 83700.00000 0 -2233607.487 25404528.375 -863539.684 10 0 60112 84600.00000 0 -2067021.757 25325502.339 2351424.082 10 0 60112 85500.00000 0 -1906148.648 24841848.782 5520761.750 10 0 60113 0.00000 0 -1805842.948 23965301.378 8582988.221 10 0 60113 900.00000 0 -1817650.356 22720519.408 11478710.386 10 0 60113 1800.00000 0 -1987393.144 21144118.223 14151773.601 10 0 60113 2700.00000 0 -2353001.544 19283218.143 16550347.080 10 0 60113 3600.00000 0 -2942682.720 17193573.503 18627923.447 10 0 60113 4500.00000 0 -3773504.698 14937359.356 20344215.222 10 0 60113 5400.00000 0 -4850455.344 12580707.772 21665931.269 10 0 60113 6300.00000 0 -6166016.642 10191095.769 22567418.752 10 0 60113 7200.00000 0 -7700273.074 7834692.875 23031158.732 10 0 60113 8100.00000 0 -9421550.773 5573777.769 23048106.194 10 0 60113 9000.00000 0 -11287562.119 3464330.480 22617868.117 10 0 60113 9900.00000 0 -13247009.405 1553899.377 21748716.000 10 0 60113 10800.00000 0 -15241582.125 -120169.221 20457432.278 10 0 60113 11700.00000 0 -17208265.913 -1532065.900 18768992.934 10 0 60113 12600.00000 0 -19081867.866 -2668362.485 16716091.674 10 0 60113 13500.00000 0 -20797653.679 -3528331.213 14338513.958 10 0 60113 14400.00000 0 -22293986.879 -4123725.882 11682372.104 10 0 60113 15300.00000 0 -23514859.836 -4478034.614 8799215.524 10 0 60113 16200.00000 0 -24412210.332 -4625236.095 5745032.785 10 0 60113 17100.00000 0 -24947925.995 -4608112.137 2579164.512 10 0 60113 18000.00000 0 -25095451.713 -4476188.367 -636851.659 10 0 60113 18900.00000 0 -24840931.581 -4283390.717 -3840481.379 10 0 60113 19800.00000 0 -24183836.524 -4085517.706 -6969415.195 10 0 60113 20700.00000 0 -23137050.373 -3937636.480 -9962786.971 10 0 60113 21600.00000 0 -21726410.124 -3891513.934 -12762364.541 10 0 60113 22500.00000 0 -19989719.277 -3993192.818 -15313688.707 10 0 60113 23400.00000 0 -17975275.445 -4280816.527 -17567137.640 10 0 60113 24300.00000 0 -15739974.003 -4782795.659 -19478895.542 10 0 60113 25200.00000 0 -13347067.269 -5516394.776 -21011806.469 10 0 60113 26100.00000 0 -10863673.197 -6486799.914 -22136096.664 10 0 60113 27000.00000 0 -8358137.781 -7686706.883 -22829951.570 10 0 60113 27900.00000 0 -5897361.258 -9096448.375 -23079936.667 10 0 60113 28800.00000 0 -3544199.446 -10684655.096 -22881254.355 10 0 60113 29700.00000 0 -1355048.075 -12409423.651 -22237832.395 10 0 60113 30600.00000 0 622289.988 -14219942.632 -21162242.550 10 0 60113 31500.00000 0 2350366.688 -16058509.108 -19675451.418 10 0 60113 32400.00000 0 3803407.746 -17862851.336 -17806408.475 10 0 60113 33300.00000 0 4968135.050 -19568660.707 -15591479.524 10 0 60113 34200.00000 0 5844059.772 -21112227.051 -13073736.644 10 0 60113 35100.00000 0 6443235.637 -22433067.111 -10302118.493 10 0 60113 36000.00000 0 6789484.464 -23476436.192 -7330477.318 10 0 60113 36900.00000 0 6917128.137 -24195617.821 -4216531.315 10 0 60113 37800.00000 0 6869281.853 -24553895.549 -1020742.804 10 0 60113 38700.00000 0 6695781.850 -24526124.334 2194855.860 10 0 60113 39600.00000 0 6450836.079 -24099835.724 5367865.624 10 0 60113 40500.00000 0 6190497.731 -23275830.615 8436729.865 10 0 60113 41400.00000 0 5970068.904 -22068234.835 11341925.813 10 0 60113 42300.00000 0 5841544.318 -20504015.247 14027115.221 10 0 60113 43200.00000 0 5851203.210 -18621976.538 16440232.209 10 0 60113 44100.00000 0 6037451.052 -16471280.402 18534487.631 10 0 60113 45000.00000 0 6429002.197 -14109548.584 20269270.982 10 0 60113 45900.00000 0 7043480.118 -11600628.295 21610933.036 10 0 60113 46800.00000 0 7886494.534 -9012112.312 22533434.669 10 0 60113 47700.00000 0 8951234.698 -6412716.088 23018849.863 10 0 60113 48600.00000 0 10218596.837 -3869619.875 23057713.547 10 0 60113 49500.00000 0 11657841.419 -1445885.229 22649207.746 10 0 60113 50400.00000 0 13227754.043 801947.788 21801182.304 10 0 60113 51300.00000 0 14878262.680 2825983.854 20530009.446 10 0 60113 52200.00000 0 16552444.989 4588728.732 18860274.360 10 0 60113 53100.00000 0 18188842.897 6064406.285 16824306.965 10 0 60113 54000.00000 0 19723988.546 7239781.953 14461563.066 10 0 60113 54900.00000 0 21095036.458 8114458.863 11817865.915 10 0 60113 55800.00000 0 22242391.838 8700634.630 8944522.160 10 0 60113 56700.00000 0 23112224.621 9022329.577 5897328.705 10 0 60113 57600.00000 0 23658763.196 9114119.305 2735489.452 10 0 60113 58500.00000 0 23846270.616 9019425.605 -479537.009 10 0 60113 59400.00000 0 23650619.198 8788438.505 -3685236.056 10 0 60113 60300.00000 0 23060396.175 8475758.067 -6819258.212 10 0 60113 61200.00000 0 22077492.809 8137856.583 -9820638.290 10 0 60113 62100.00000 0 20717151.231 7830469.577 -12630987.991 10 0 60113 63000.00000 0 19007466.204 7606027.051 -15195637.960 10 0 60113 63900.00000 0 16988362.196 7511234.729 -17464706.352 10 0 60113 64800.00000 0 14710088.263 7584908.530 -19394072.651 10 0 60113 65700.00000 0 12231293.593 7856154.672 -20946237.529 10 0 60113 66600.00000 0 9616764.144 8342972.930 -22091051.966 10 0 60113 67500.00000 0 6934914.894 9051342.582 -22806301.654 10 0 60113 68400.00000 0 4255142.200 9974829.978 -23078135.665 10 0 60113 69300.00000 0 1645146.461 11094734.617 -22901331.467 10 0 60113 70200.00000 0 -831663.819 12380767.842 -22279391.623 10 0 60113 71100.00000 0 -3118579.139 13792235.860 -21224470.692 10 0 60113 72000.00000 0 -5167707.898 15279677.584 -19757134.129 10 0 60113 72900.00000 0 -6941719.974 16786888.669 -17905954.096 10 0 60113 73800.00000 0 -8415143.660 18253246.963 -15706950.206 10 0 60113 74700.00000 0 -9575163.348 19616241.826 -13202886.164 10 0 60113 75600.00000 0 -10421886.304 20814101.247 -10442436.008 10 0 60113 76500.00000 0 -10968069.103 21788406.498 -7479236.220 10 0 60113 77400.00000 0 -11238316.872 22486584.530 -4370842.210 10 0 60113 78300.00000 0 -11267790.623 22864173.420 -1177609.582 10 0 60113 79200.00000 0 -11100478.497 22886765.699 2038477.957 10 0 60113 80100.00000 0 -10787104.949 22531547.881 5215011.075 10 0 60113 81000.00000 0 -10382767.033 21788371.503 8290364.213 10 0 60113 81900.00000 0 -9944398.150 20660310.631 11204888.414 10 0 60113 82800.00000 0 -9528166.739 19163682.277 13902064.469 10 0 60113 83700.00000 0 -9186919.844 17327528.616 16329594.293 10 0 60113 84600.00000 0 -8967779.389 15192582.233 18440409.768 10 0 60113 85500.00000 0 -8909992.401 12809757.098 20193580.014 10 0 60114 0.00000 0 -9043125.603 10238227.672 21555100.048 10 0 60114 900.00000 0 -9385680.489 7543173.882 22498546.867 10 0 60114 1800.00000 0 -9944187.009 4793288.186 23005589.040 10 0 60114 2700.00000 0 -10712814.625 2058142.643 23066342.826 10 0 60114 3600.00000 0 -11673517.549 -594472.481 22679566.177 10 0 60114 4500.00000 0 -12796709.040 -3101130.541 21852687.610 10 0 60114 5400.00000 0 -14042437.539 -5405164.448 20601668.876 10 0 60114 6300.00000 0 -15362016.495 -7458778.170 18950703.473 10 0 60114 7200.00000 0 -16700040.699 -9224786.739 16931756.049 10 0 60114 8100.00000 0 -17996705.511 -10677913.038 14583950.692 10 0 60114 9000.00000 0 -19190332.394 -11805587.806 11952819.039 10 0 60114 9900.00000 0 -20219995.085 -12608219.873 9089422.001 10 0 60114 10800.00000 0 -21028135.990 -13098925.755 6049361.541 10 0 60114 11700.00000 0 -21563062.422 -13302730.401 2891701.336 10 0 60114 12600.00000 0 -21781216.827 -13255273.211 -322182.688 10 0 60114 13500.00000 0 -21649124.416 -13001074.500 -3529799.312 10 0 60114 14400.00000 0 -21144934.973 -12591436.230 -6668762.690 10 0 60114 15300.00000 0 -20259492.646 -12082066.612 -9678012.167 10 0 60114 16200.00000 0 -18996887.462 -11530529.876 -12499006.745 10 0 60114 17100.00000 0 -17374464.263 -10993630.050 -15076870.127 10 0 60114 18000.00000 0 -15422287.775 -10524840.327 -17361463.361 10 0 60114 18900.00000 0 -13182085.554 -10171887.561 -19308363.704 10 0 60114 19800.00000 0 -10705712.545 -9974594.676 -20879730.412 10 0 60114 20700.00000 0 -8053201.214 -9963072.663 -22045040.561 10 0 60114 21600.00000 0 -5290478.389 -10156338.819 -22781680.780 10 0 60114 22500.00000 0 -2486843.853 -10561419.693 -23075383.730 10 0 60114 23400.00000 0 287684.507 -11172976.619 -22920501.285 10 0 60114 24300.00000 0 2965048.857 -11973469.566 -22320109.550 10 0 60114 25200.00000 0 5481741.993 -12933852.357 -21285944.107 10 0 60114 26100.00000 0 7781203.256 -14014769.900 -19838167.073 10 0 60114 27000.00000 0 9815921.032 -15168207.007 -18004970.766 10 0 60114 27900.00000 0 11549155.429 -16339519.371 -15822025.813 10 0 60114 28800.00000 0 12956210.649 -17469761.227 -13331784.535 10 0 60114 29700.00000 0 14025205.431 -18498211.722 -10582653.197 10 0 60114 30600.00000 0 14757310.980 -19364993.656 -7628049.262 10 0 60114 31500.00000 0 15166448.033 -20013674.290 -4525362.064 10 0 60114 32400.00000 0 15278457.401 -20393738.724 -1334837.240 10 0 60114 33300.00000 0 15129780.338 -20462831.611 1881593.303 10 0 60114 34200.00000 0 14765705.557 -20188672.763 5061512.909 10 0 60114 35100.00000 0 14238257.845 -19550565.922 8143229.786 10 0 60114 36000.00000 0 13603818.022 -18540437.054 11066971.166 10 0 60114 36900.00000 0 12920575.135 -17163358.255 13776038.895 10 0 60114 37800.00000 0 12245918.523 -15437534.915 16217904.302 10 0 60114 38700.00000 0 11633879.665 -13393756.081 18345221.507 10 0 60114 39600.00000 0 11132731.376 -11074330.313 20116740.053 10 0 60114 40500.00000 0 10782845.167 -8531550.567 21498099.810 10 0 60114 41400.00000 0 10614896.574 -5825750.995 22462493.406 10 0 60114 42300.00000 0 10648493.739 -3023035.387 22991183.910 10 0 60114 43200.00000 0 10891286.790 -192770.382 23073868.201 10 0 60114 44100.00000 0 11338595.638 2595053.787 22708879.151 10 0 60114 45000.00000 0 11973572.248 5272486.687 21903222.670 10 0 60114 45900.00000 0 12767891.229 7776195.883 20672448.540 10 0 60114 46800.00000 0 13682940.607 10049853.926 19040356.906 10 0 60114 47700.00000 0 14671463.675 12046235.760 17038545.339 10 0 60114 48600.00000 0 15679583.821 13728939.966 14705804.299 10 0 60114 49500.00000 0 16649127.919 15073662.622 12087371.805 10 0 60114 50400.00000 0 17520150.990 16068970.957 9234060.956 10 0 60114 51300.00000 0 18233555.971 16716544.759 6201276.627 10 0 60114 52200.00000 0 18733697.930 17030875.736 3047940.069 10 0 60114 53100.00000 0 18970862.353 17038437.817 -164657.679 10 0 60114 54000.00000 0 18903512.017 16776363.792 -3374051.014 10 0 60114 54900.00000 0 18500206.503 16290684.657 -6517819.856 10 0 60114 55800.00000 0 17741112.077 15634206.667 -9534810.115 10 0 60114 56700.00000 0 16619036.919 14864116.590 -12366329.953 10 0 60114 57600.00000 0 15139946.773 14039417.179 -14957297.815 10 0 60114 58500.00000 0 13322938.146 13218302.091 -17257319.123 10 0 60114 59400.00000 0 11199669.167 12455581.925 -19221670.212 10 0 60114 60300.00000 0 8813271.116 11800270.694 -20812170.075 10 0 60114 61200.00000 0 6216785.591 11293435.026 -21997922.903 10 0 60114 62100.00000 0 3471192.128 10966397.047 -22755917.144 10 0 60114 63000.00000 0 643108.173 10839366.687 -23071469.799 10 0 60114 63900.00000 0 -2197743.094 10920560.860 -22938507.697 10 0 60114 64800.00000 0 -4981192.026 11205846.287 -22359680.793 10 0 60114 65700.00000 0 -7639298.770 11678920.602 -21346305.674 10 0 60114 66600.00000 0 -10108935.743 12312023.667 -19918140.753 10 0 60114 67500.00000 0 -12334169.693 13067148.730 -18102997.760 10 0 60114 68400.00000 0 -14268345.151 13897702.062 -15936197.233 10 0 60114 69300.00000 0 -15875783.548 14750540.833 -13459878.694 10 0 60114 70200.00000 0 -17133028.412 15568303.096 -10722178.966 10 0 60114 71100.00000 0 -18029586.031 16291931.491 -7776294.618 10 0 60114 72000.00000 0 -18568132.039 16863284.044 -4679446.898 10 0 60114 72900.00000 0 -18764176.791 17227721.834 -1491769.337 10 0 60114 73800.00000 0 -18645204.967 17336564.257 1724860.176 10 0 60114 74700.00000 0 -18249326.938 17149308.164 4908019.986 10 0 60114 75600.00000 0 -17623499.702 16635517.196 7995954.477 10 0 60114 76500.00000 0 -16821393.214 15776301.464 10928769.568 10 0 60114 77400.00000 0 -15900992.543 14565324.986 13649590.725 10 0 60114 78300.00000 0 -14922037.159 13009298.101 16105661.281 10 0 60114 79200.00000 0 -13943405.168 11127933.555 18249360.170 10 0 60114 80100.00000 0 -13020552.388 8953367.294 20039119.840 10 0 60114 81000.00000 0 -12203113.524 6529067.204 21440227.234 10 0 60114 81900.00000 0 -11532765.806 3908274.117 22425492.950 10 0 60114 82800.00000 0 -11041444.312 1152038.729 22975776.212 10 0 60114 83700.00000 0 -10749983.479 -1673065.341 23080355.938 10 0 60114 84600.00000 0 -10667241.592 -4497458.791 22737140.914 10 0 60114 85500.00000 0 -10789744.951 -7251201.034 21952714.966 99